This is the latest recevied weather packets stored in our database for station/object OK1FET-16. If no packets are shown the sender has not sent any weather packets the latest 1 day(s).
| Time | Temp. | Humidity | Pressure | Rain* | Wind** | Luminosity | Snow |
|---|---|---|---|---|---|---|---|
| 1777988125 | 18.33° C | 47% | 1005.3 hPa | - | 0.45 m/s, 224° | - | - |
| 1777988125 | 18.33° C | 47% | 1005.3 hPa | - | 0.45 m/s, 224° | - | - |
| 1777988125 | 18.33° C | 47% | 1005.3 hPa | - | 0.45 m/s, 224° | - | - |
| 1777987855 | 18.33° C | 47% | 1005.2 hPa | - | 1.34 m/s, 228° | - | - |
| 1777987854 | 18.33° C | 47% | 1005.2 hPa | - | 1.34 m/s, 228° | - | - |
| 1777987854 | 18.33° C | 47% | 1005.2 hPa | - | 1.34 m/s, 228° | - | - |
| 1777987584 | 18.33° C | 47% | 1005.2 hPa | - | 0.89 m/s, 215° | - | - |
| 1777987584 | 18.33° C | 47% | 1005.2 hPa | - | 0.89 m/s, 215° | - | - |
| 1777987584 | 18.33° C | 47% | 1005.2 hPa | - | 0.89 m/s, 215° | - | - |
| 1777987043 | 18.33° C | 47% | 1005.2 hPa | - | 0.89 m/s, 233° | - | - |
| 1777987043 | 18.33° C | 47% | 1005.2 hPa | - | 0.89 m/s, 233° | - | - |
| 1777987043 | 18.33° C | 47% | 1005.2 hPa | - | 0.89 m/s, 233° | - | - |
| 1777986232 | 19.44° C | 47% | 1005.4 hPa | - | 1.34 m/s, 204° | - | - |
| 1777986232 | 19.44° C | 47% | 1005.4 hPa | - | 1.34 m/s, 204° | - | - |
| 1777986231 | 19.44° C | 47% | 1005.4 hPa | - | 1.34 m/s, 204° | - | - |
| 1777986231 | 19.44° C | 47% | 1005.4 hPa | - | 1.34 m/s, 204° | - | - |
| 1777985961 | 19.44° C | 45% | 1005.3 hPa | - | 1.79 m/s, 222° | - | - |
| 1777985961 | 19.44° C | 45% | 1005.3 hPa | - | 1.79 m/s, 222° | - | - |
| 1777985961 | 19.44° C | 45% | 1005.3 hPa | - | 1.79 m/s, 222° | - | - |
| 1777985420 | 20.56° C | 44% | 1005.4 hPa | - | 1.79 m/s, 231° | - | - |
| 1777985420 | 20.56° C | 44% | 1005.4 hPa | - | 1.79 m/s, 231° | - | - |
| 1777985419 | 20.56° C | 44% | 1005.4 hPa | - | 1.79 m/s, 231° | - | - |
| 1777985150 | 20.56° C | 44% | 1005.5 hPa | - | 1.34 m/s, 225° | - | - |
| 1777985149 | 20.56° C | 44% | 1005.5 hPa | - | 1.34 m/s, 225° | - | - |
| 1777985149 | 20.56° C | 44% | 1005.5 hPa | - | 1.34 m/s, 225° | - | - |
* Rain since midnight (hover to see other rain measurements)
** Current wind speed in m/s (hover to see current wind gust speed)